User: anonymous   Login
Location: Igri�s
(42.2144°N, 0.4320°W)
Time: 23:40:11
(UTC+00:00)
Language:

deb Transtage 4 - Orbit

View from above orbital plane
View from above orbital plane
View from above satellite
View from above satellite

Ground track
Ground track

The orbit data is extracted from the following two-line orbital elements,

1 01829U 65082DU  21060.50262456  .00000303  00000-0  35663-4 0  9993
2 01829  32.2904 190.3993 0029808 162.6256 197.5422 14.77852013933420
Epoch (UTC): 01 March 2021 12:03:46
Eccentricity: 0.0029808
inclination: 32.2904°
perigee height: 615 km
apogee height: 657 km
right ascension of ascending node: 190.3993°
argument of perigee: 162.6256°
revolutions per day: 14.77852013
mean anomaly at epoch: 197.5422°
orbit number at epoch: 93342

The dashed part of the orbit path shows where the satellite is in the earth's shadow,  

DLR